Location: Baia Mare
(47.6567°N, 23.5850°E)
Time: 09:29:34
(UTC+03:00)

ISS - Pass Details

Date: 27 July 2018
Orbit: 402 x 408 km, 51.6° (Epoch: 16 July)

Event Time Altitude Azimuth Distance (km) Brightness Sun altitude
Rises 23:31:34 0° 289° (WNW) 2,324 0.8 -18.0°
Reaches altitude 10° 23:33:42 10° 295° (WNW) 1,464 -0.2 -18.2°
Maximum altitude 23:36:52 44° 10° (N) 569 -2.8 -18.4°
Enters shadow 23:38:31 23° 71° (ENE) 903 -2.2 -18.6°
